sat.trackr.live / text

‹ back to catalog

STARLINK-32663

NORAD 62197 · 2024-229F

PAYLOAD ACTIVE UNKNOWN

§ Identity

Operator
Country
US
Launch date
2024-12-04
Launch site
AFETR
Launch vehicle
Mass (kg)
RCS (m²)

Purposes: comms

External: N2YO · Heavens-Above · Gunter

§ Orbital elements

Epoch: 2026-05-24T20:10:49.821024Z

Period
94.27 min
Inclination
42.9946°
Eccentricity
0.0001084
Mean motion
15.27594103 rev/d
Perigee alt
482.3 km
Apogee alt
483.8 km
Semi-major
6,861.1 km
B*
4.2024e-4
RAAN
201.0006°
Arg perigee
283.1691°
Mean anomaly
76.9039°
Rev number
8,220

§ Raw data

STARLINK-326631 62197U 24229F   26144.84085441  .00011325  00000+0  42024-3 0  99912 62197  42.9946 201.0006 0001084 283.1691  76.9039 15.27594103 82206

JSON: /api/v1/satellites/62197 · /tle

For live sub-satellite position, see the globe view (requires WebGL).

§ Visibility from observer

Set your observer location to see the next 7 days of passes ≥ 10°. The values pass through the URL so the page stays shareable.

No JS? Fill the form by hand. The geolocation button needs JavaScript.